Jackpot

Texas Poker Multi Jackpot System

Kini Telah hadir Jackpot SUPER ROYAL FLUSH

Kini Telah hadir Jackpot 2000 (khusus table VIP keatas).

Ikutilah global jackpot yang tersedia di system kami, dengan system jackpot terbaru dan pertama di indonesia, anda dapat membeli jackpot dengan harga 100 rupiah saja dan menangkan hadiahnya hingga puluhan juta rupiah.

Jackpot bukanlah suatu keharusan untuk dibeli, namun kami memberikan suatu fitur tambahan untuk member tercinta dari www.porkaspoker.net.

Terdapat tiga pilihan harga jackpot yang bisa anda beli yaitu :100,500,1000 dan 2000(khusus table VIP Keatas) rupiah.

Hadiah dari Multi jackpot system www.porkaspoker.net

  1. full house x 10 harga jackpot yang anda beli.
      (contoh:anda membeli 1000 maka:1000 X10 = 10.000)
  2. four of kind x 250 harga jackpot yang anda beli
      (contoh:anda membeli 1000 maka:1000 X250 = 250.000)
  3. Straight flush x 1200
      (contoh:anda membeli 1000 maka:1000 X1200 = 1.200.000)
  4. Royal flush x 10000 harga jackpot yang anda beli
      (contoh:anda membeli 1000 maka:1000 X10000 = 10.000.000)
  5. SUPER ROYAL FLUSH x 30000 harga jackpot yang anda beli
      (contoh:anda membeli 1000 maka:1000 X30000 = 30.000.000)

Kondisi kartu

  1. full house adalah kondisi kartu dimana kartu anda dan kartu tengah dengan total 7 kartu bisa mendapatkan nilai 5 kartu dengan kombinasi 1 tris(three of kind) dan 1 pair, contoh 3 kartu 10 dan 2 kartu 5
  2. Four of kind adalah kondisi kartu dimana kartu anda dan kartu tengah dengan total 7 kartu bisa mendapatkan nilai 5 kartu dengan kombinasi 4 kartu yang sama jumlah dan 1 kartu apapun juga contoh anda mendapatkan 4 buah kartu angka 3 dan 1 kartu apapun.
  3. Staright flush adalah kondisi kartu dimana kartu anda dan kartu tengah dengan total 7 kartu bisa mendapatkan nilai 5 kartu dengan kombinasi seri / staright dengan kembang yang sama contoh : urutan kartu dari angka 5, 6, 7, 8 , 9 10 dengan kembang yg sama misalnya as hati
  4. Royal flush adalah kondisi kartu dimana kartu anda dan kartu tengah dengan total 7 kartu bisa mendapatkan nilai 5 kartu dengan kombinasi seri / staright dengan kembang yang sama tetapi kartu tersebut haruslah dimulai dari 10. contoh 10, Queen, Jack, King dan aces dengan kembang yang sama
  5. Super Royal flush adalah kondisi kartu dimana Kedua kartu anda digabung dengan 3 kartu pertama meja haruslah royal flush. contoh kartu anda 10,Queen kembang sama dan 3 kartu pertama meja adalah Jack, King dan aces dengan kembang yang sama

Demikian adalah penjelasan dari Multi Jackpot www.porkaspoker.net terima kasih dan selamat bermain salam hoki dari kami

Texas Poker Jackpot Winner

TOP SUPER ROYAL FLUSH
No.TanggalNamaPriceWin
121/01 05:03OKI_12Super Royal flush6,000,000
221/01 00:56PUCKEYSuper Royal flush6,000,000
320/01 23:37BUNGNGA999Super Royal flush6,000,000
420/01 18:09COROET87Super Royal flush3,000,000
520/01 17:49CUPANG011Super Royal flush15,000,000
TOP ROYAL FLUSH
No.TanggalNamaPriceWin
121/01 04:14KUNDRU186Royal flush5,000,000
221/01 03:44KUMAN77Royal flush500,000
321/01 03:42DLPNJUTARoyal flush5,000,000
421/01 03:37E8F1F6C2Royal flush2,000,000
521/01 03:37FGLD9GYX1DRoyal flush2,000,000
TOP STRAIGHT FLUSH
No.TanggalNamaPriceWin
121/01 05:43KOKOBET99Straight Flush120,000
221/01 05:42FRISTEAHStraight Flush120,000
321/01 05:41RO_BIStraight Flush240,000
421/01 05:39JIKKLK123Straight Flush1,200,000
521/01 05:33ABIMANYU41Straight Flush240,000
LATEST JACKPOT
No.TanggalNamaPriceWin
121/01 05:46BDC3EF7DFull House5,000
221/01 05:45KURUS800Full House10,000
321/01 05:45QURUS99Full House5,000
421/01 05:45BB101011Full House5,000
521/01 05:45MUMU1002Full House2,000
621/01 05:45P2L93E76P8Full House2,000
721/01 05:45ZAINAL_4Full House2,000
821/01 05:45ALEXFRGFull House1,000
921/01 05:45ILIX88Four Of A Kind125,000
1021/01 05:45COLONOS666Full House1,000
1121/01 05:45BERKHAH98Full House2,000
1221/01 05:45T26507STARFull House2,000
1321/01 05:45KJADP96Full House5,000
1421/01 05:45SYUKUR84Full House5,000
1521/01 05:45KUNYUKKONFull House5,000
1621/01 05:45AZIZ2828Full House10,000
1721/01 05:45J69IJU7YOUFull House10,000
1821/01 05:45MHY99Full House5,000
1921/01 05:45AMBO13Full House5,000
2021/01 05:45CS7PUVMWJ5Full House1,000
2121/01 05:45POKERAJOFull House5,000
2221/01 05:45MANTEN88Full House5,000
2321/01 05:45MONA001Full House2,000
2421/01 05:45MECTYFull House5,000
2521/01 05:45PEUABEH83Full House2,000
2621/01 05:45TOOO___PFull House5,000
2721/01 05:45LAMBUIKD4Full House5,000
2821/01 05:45SANGIET89Full House10,000
2921/01 05:45LEK_AGUSFour Of A Kind125,000
3021/01 05:45TTMM33Full House10,000
3121/01 05:45RIDDICK8Full House10,000
3221/01 05:45NEELHAMFull House2,000
3321/01 05:45KARDIASUFull House5,000
3421/01 05:45PANTEK655Full House10,000
3521/01 05:45K1226381Full House2,000
3621/01 05:45SOPAI88Full House10,000
3721/01 05:45DWBTL25294Full House2,000
3821/01 05:45ANGEL19Full House500
3921/01 05:45DARWAN123Full House10,000
4021/01 05:45MEN_TELFull House1,000
4121/01 05:45EGDLWHAOZTFour Of A Kind50,000
4221/01 05:450PLOZAANFour Of A Kind250,000
4321/01 05:45SV_PLSTNAFull House10,000
4421/01 05:45JENIUS1983Full House2,000
4521/01 05:45MFITRIFull House2,000
4621/01 05:45EF71857BFull House2,000
4721/01 05:44PRE5IDENTFull House2,000
4821/01 05:44JADOEK99Full House5,000
4921/01 05:44VJLFDDSJFDFour Of A Kind250,000
5021/01 05:44CAP565Four Of A Kind50,000

Domino Multi Jackpot System

Ikutilah global jackpot yang tersedia di system kami, dengan system jackpot terbaru dan pertama di indonesia, anda dapat membeli jackpot dengan harga 100 rupiah saja dan menangkan hadiahnya hingga puluhan juta rupiah.

Jackpot bukanlah suatu keharusan untuk dibeli, namun kami memberikan suatu fitur tambahan untuk member tercinta dari www.porkaspoker.net.

Terdapat tiga pilihan harga jackpot yang bisa anda beli yaitu :100,500 dan 1000 rupiah.

Hadiah dari Multi jackpot system www.porkaspoker.net

  1. Murni Kecil x 50 harga jackpot yang anda beli.
      (contoh:anda membeli 1000 maka:1000 X 50 = 50.000)
  2. Murni Besar x 50 harga jackpot yang anda beli
      (contoh:anda membeli 1000 maka:1000 X 50 = 50.000)
  3. BALAK x 100 harga jackpot yang anda beli
      (contoh:anda membeli 1000 maka:1000 X 100 = 100.000)
  4. ENAM DEWA x 6666 harga jackpot yang anda beli
      (contoh:anda membeli 1000 maka:1000 X 6666 = 6.666.000)

Demikian adalah penjelasan dari Multi Jackpot www.porkaspoker.net terima kasih dan selamat bermain salam hoki dari kami

Domino Jackpot Winner

TOP ENAM DEWA
No.TanggalNamaPriceWin
120/01 23:55CECER67murni enam3,333,000
220/01 22:48HARI210485murni enam3,333,000
320/01 16:39ACIL66murni enam6,666,000
420/01 14:08SANGENYAmurni enam3,333,000
520/01 12:17TONI028murni enam3,333,000
TOP BALAK
No.TanggalNamaPriceWin
121/01 05:42VOAQCSZT60balak100,000
221/01 05:36AADDACUD61balak10,000
321/01 05:35CRFEZL9JDJbalak10,000
421/01 05:31CIRO23balak100,000
521/01 05:29INKHE08balak100,000
LATEST JACKPOT
No.TanggalNamaPriceWin
121/01 05:45OJOB99murni kecil50,000
221/01 05:44TASYAKADULmurni kecil50,000
321/01 05:44KERBAU45murni kecil25,000
421/01 05:44COMET86murni kecil50,000
521/01 05:43KIMEX00murni kecil50,000
621/01 05:43BAGUS1088murni kecil5,000
721/01 05:42ASIK536murni besar5,000
821/01 05:42LEOSHTTmurni besar5,000
921/01 05:42VOAQCSZT60balak100,000
1021/01 05:42FAJAR0murni kecil50,000
1121/01 05:41MADA77murni kecil50,000
1221/01 05:40MOA76murni kecil50,000
1321/01 05:39IIK_NICKmurni kecil5,000
1421/01 05:39CIRO23murni kecil50,000
1521/01 05:38LEOSHTTmurni kecil5,000
1621/01 05:37ANDYMESSImurni besar50,000
1721/01 05:36AADDACUD61balak10,000
1821/01 05:35CRFEZL9JDJbalak10,000
1921/01 05:34ALIKEPURmurni besar50,000
2021/01 05:32BUSTED15murni kecil50,000
2121/01 05:32RULER99murni kecil5,000
2221/01 05:31CIRO23balak100,000
2321/01 05:30AADDAIAA2murni besar5,000
2421/01 05:29INKHE08balak100,000
2521/01 05:28TEMPEKTUO1murni besar50,000
2621/01 05:28TOGE9393murni kecil5,000
2721/01 05:27MENSENN18murni besar5,000
2821/01 05:27ARIS49murni besar25,000
2921/01 05:26C701877Emurni kecil25,000
3021/01 05:25JNG99murni kecil50,000
3121/01 05:25AULI488murni besar5,000
3221/01 05:23COMET86murni besar50,000
3321/01 05:22BIKUBIKUmurni besar50,000
3421/01 05:19KBJK03KSLTmurni besar5,000
3521/01 05:19YADAH88murni besar25,000
3621/01 05:17MAKANASmurni besar50,000
3721/01 05:17ASTA555murni besar50,000
3821/01 05:15BENGHAR93murni kecil25,000
3921/01 05:15JABLUNmurni kecil5,000
4021/01 05:15EZITmurni besar50,000
4121/01 05:15IN3NGB4L3murni besar5,000
4221/01 05:13PANU5lucky9950,000
4321/01 05:13SPORTLIAbalak100,000
4421/01 05:13EOSRURI07murni kecil25,000
4521/01 05:12CEKI1234balak100,000
4621/01 05:11JEMBOT9999murni kecil5,000
4721/01 05:11HITJAMANOWbalak100,000
4821/01 05:10VANTAKURZmurni besar25,000
4921/01 05:10EDO114balak100,000
5021/01 05:09SPORTLIAbalak100,000

Ceme Multi Jackpot System

Jackpot dilihat dari gabungan kartu pemain dengan kartu bandar. Bandar harus membeli jackpot sebanyak jumlah player yang sedang duduk. Sebagai contoh bila terdapat 3 pemain duduk bermain, dan bandar memutuskan untuk membeli jackpot Rp 1.000, maka pada periode tersebut bandar akan membeli jackpot sebanyak 3xRp1.000 = Rp3.000.

Jackpot bukanlah suatu keharusan untuk dibeli, namun kami memberikan suatu fitur tambahan untuk member tercinta dari www.porkaspoker.net.

Terdapat tiga pilihan harga jackpot yang bisa anda beli yaitu :100,500 dan 1000 rupiah.

Hadiah dari Multi jackpot system www.porkaspoker.net

  1. Murni Kecil x 50 harga jackpot yang anda beli.
      (contoh:anda membeli 1000 maka:1000 X 50 = 50.000)
  2. Murni Besar x 50 harga jackpot yang anda beli
      (contoh:anda membeli 1000 maka:1000 X 50 = 50.000)
  3. BALAK x 200 harga jackpot yang anda beli
      (contoh:anda membeli 1000 maka:1000 X 200 = 200.000)
  4. ENAM DEWA x 6666 harga jackpot yang anda beli
      (contoh:anda membeli 1000 maka:1000 X 6666 = 6.666.000)

Demikian adalah penjelasan dari Multi Jackpot www.porkaspoker.net terima kasih dan selamat bermain salam hoki dari kami

Ceme Jackpot Winner

TOP ENAM DEWA
No.TanggalNamaPriceWin
121/01 04:59UGIX1988murni enam3,333,000
221/01 04:59GAKNGOROSmurni enam6,666,000
321/01 04:52NIEZmurni enam666,600
421/01 04:46PANIROYmurni enam6,666,000
521/01 04:11ARP15GBmurni enam666,600
TOP BALAK
No.TanggalNamaPriceWin
121/01 05:44D1BF4271balak100,000
221/01 05:44QNI9F66H88balak200,000
321/01 05:43BUDICERIAbalak100,000
421/01 05:43BLACKGUN10balak200,000
521/01 05:42FURTACHIbalak200,000
LATEST JACKPOT
No.TanggalNamaPriceWin
121/01 05:45BA5417ENmurni besar25,000
221/01 05:45RAHMADZLDmurni kecil25,000
321/01 05:45RVUE54IXVMmurni kecil5,000
421/01 05:45IRFAN233murni kecil50,000
521/01 05:45RAVATAR007murni kecil50,000
621/01 05:44SIMEN297murni kecil50,000
721/01 05:44DAGUELmurni kecil25,000
821/01 05:44D1BF4271balak100,000
921/01 05:44KUPUN78murni besar50,000
1021/01 05:44AKB12murni besar25,000
1121/01 05:44DEVALO_22murni kecil50,000
1221/01 05:44ANTOSCLUBmurni kecil50,000
1321/01 05:44QNI9F66H88balak200,000
1421/01 05:44QNI9F66H88murni kecil50,000
1521/01 05:43D1BF4271murni kecil25,000
1621/01 05:43BUDICERIAbalak100,000
1721/01 05:43BLACKGUN10balak200,000
1821/01 05:43AAGBAEBA55murni kecil50,000
1921/01 05:43DWBTEMBA31murni kecil50,000
2021/01 05:42MGIC39murni kecil50,000
2121/01 05:42WITHDRAW37murni kecil50,000
2221/01 05:42D1BF4271murni kecil25,000
2321/01 05:42FURTACHIbalak200,000
2421/01 05:42AADRBCAM57balak200,000
2521/01 05:42KUPUN78murni besar50,000
2621/01 05:42AKB12murni besar25,000
2721/01 05:42IRFAN233murni kecil50,000
2821/01 05:42IRFAN233murni kecil50,000
2921/01 05:42M48Umurni besar50,000
3021/01 05:42GONJEN1murni kecil25,000
3121/01 05:41QNI9F66H88murni kecil50,000
3221/01 05:41SUALLOWmurni kecil50,000
3321/01 05:41BOBOOOY06murni kecil50,000
3421/01 05:41LINTAH66murni kecil50,000
3521/01 05:41JASSELINEmurni kecil5,000
3621/01 05:41YONGKRUTTbalak200,000
3721/01 05:41ET2F3SK2M2murni besar25,000
3821/01 05:41RAHMADZLDmurni kecil25,000
3921/01 05:41TAMABROmurni kecil50,000
4021/01 05:41RAHMADZLDmurni kecil25,000
4121/01 05:41DEVALO_22murni besar50,000
4221/01 05:41P3TERmurni besar50,000
4321/01 05:41SIMEN297balak200,000
4421/01 05:41SUMBERANmurni kecil5,000
4521/01 05:40BXNMBKQ50Ubalak200,000
4621/01 05:39RAFEL12murni kecil25,000
4721/01 05:38UGIX1988murni besar25,000
4821/01 05:38TEGOEH99murni besar50,000
4921/01 05:37FURDIATmurni besar50,000
5021/01 05:37GROGOTCLUBmurni kecil50,000